Hourly Data Report for October 01, 2017

All times are specified in Local Standard Time (LST). Add 1 hour to adjust for Daylight Saving Time where and when it is observed.

FLIN FLON
MANITOBA

54°41'00.000" N
101°41'00.000" W
303.90 m
5050919
71954
WFO

Download Data

Hourly Data (October 2017)
Hourly Data Report for October 1, 2017
Temp Definition
°C
Dew Point Temp Definition
°C
Rel Hum Definition
%
Wind Dir Definition
10's deg

Wind Spd Definition
km/h
Visibility Definition
km
Stn Press Definition
kPa
Hmdx Definition


Wind Chill Definition


Weather Definition


TIME
00:00 14.3 9.6 73 15 7   96.79     LegendNANA
01:00 14.5 9.8 73 14 9   96.77     LegendNANA
02:00 14.2 9.9 75 13 9   96.75     LegendNANA
03:00 13.9 10.0 77 13 7   96.68     LegendNANA
04:00 13.9 10.0 77 12 6   96.67     LegendNANA
05:00 13.4 9.8 79 12 8   96.62     LegendNANA
06:00 13.5 10.2 81 12 8   96.64     LegendNANA
07:00 13.3 10.7 84 11 12   96.61     LegendNANA
08:00 13.1 11.0 87 10 9   96.63     LegendNANA
09:00 13.3 11.2 87 11 10   96.64     LegendNANA
10:00 13.6 11.4 87 11 8   96.64     LegendNANA
11:00 14.0 11.5 85 10 11   96.61     LegendNANA
12:00 13.9 11.6 86 13 8   96.61     LegendNANA
13:00 13.7 11.7 88 11 10   96.59     LegendNANA
14:00 13.9 11.8 87 12 10   96.60     LegendNANA
15:00 14.3 11.8 85 12 7   96.62     LegendNANA
16:00 14.3 11.8 85 8 5   96.59     LegendNANA
17:00 14.3 12.1 87 6 7   96.61     LegendNANA
18:00 13.9 12.3 90 3 5   96.67     LegendNANA
19:00 13.7 12.3 91 3 4   96.71     LegendNANA
20:00 13.7 12.4 92 5 4   96.74     LegendNANA
21:00 13.5 12.5 93 7 7   96.75     LegendNANA
22:00 13.7 12.3 91 7 5   96.73     LegendNANA
23:00 13.4 12.3 93 1 5   96.75     LegendNANA

Notes on Data Quality.

Legend

  • E = Estimated
  • M = Missing
  • NA = Not Available
  • ‡ = Partner data that is not subject to review by the National Climate Archives
Date modified: